COSMOS 1375 DEB

Satellite information

Favourite Embed

Satellite Type and Status

DEBRISIN ORBIT

Key statistics

Satellite COSMOS 1375 DEB at a glance.

Uptime

15675

Days in orbit

Revolutions

≈ 14.3

Per day

Orbit

LEO

Low Earth Orbit

Inclination

65.8

Latest

Satellite identification and parameters

Extended collection of information and parameters for COSMOS 1375 DEB.

Object identification

Identified? True

Debris? True

Object name: COSMOS 1375 DEB

International designator: 1982-055AT

Object number (NORAD): 17801

Object ID (CCSDS): 17801

Country: COMMONWEALTH OF INDEPENDENT STATES (CIS)

Current information (Y/N): Y

RCS size: SMALL

Orbital parameters

Period: 100.411 minutes

Inclination: 65.8256 deg

SMA: 7156.196 km

Apoapsis: 789.59 km

Periapsis: 766.532 km

RAAN: 317.3079 deg

Eccentricy: 0.0016111

Argument of periapsis: 63.734 deg

Mean anomaly: 296.5406 deg

Mean motion: 14.34099952 rev/day

Mean motion (dot): 0.00004743 rev/day2

B* drag term: 0.001722 1/REarth

Two-line elements (TLE)

Creation date: May 6, 2025, 3:54 a.m.

Reference frame: TEME

Reference center: EARTH

Epoch: May 5, 2025, 7:37 p.m. UTC

TLE line 0: 0 COSMOS 1375 DEB

TLE line 1: 1 17801U 82055AT 25125.81750266 .00004743 00000-0 17220-2 0 9999

TLE line 2: 2 17801 65.8256 317.3079 0016111 63.7340 296.5406 14.34099952 27078

Live tracking on map

Real-time ground track for satellite COSMOS 1375 DEB.

In-orbit conjunctions

A list of the most updated potential collisions computed for object COSMOS 1375 DEB.

Target Orbit TCA Probability of collision Miss distance Type
THOR BURNER 2 R/B SSO 2025-03-10 12:58:14 0.0003028478 142.0 (m) ROCKET BODY
CBERS 2 SSO 2025-02-07 01:35:02 0.001411037 141.0 (m) PAYLOAD
EYESAT A SSO 2024-12-12 14:51:08 0.0005544004 390.0 (m) PAYLOAD
COSMOS 1275 DEB LEO 2024-11-13 18:16:08 0.0001250025 419.0 (m) DEBRIS
CZ-4C R/B SSO 2024-10-04 19:17:56 0.0001066503 633.0 (m) ROCKET BODY

Associated space launch

ASAT target satellite

COSMOS 1375 DEB was lifted into orbit during the mission ‘Kosmos-3M | DS-P1-M 16’, on board a Kosmos-3M space rocket.

The launch took place on June 6, 1982, 5:10 p.m. from 132/2.

For more information about the launch, click the button.

Launch to space Kosmos-3M | DS-P1-M 16
Kosmos-3M | DS-P1-M 16

Agency: N/A

Status: Launch Successful

Launch date: June 6, 1982, 5:10 p.m. UTC

Rocket: Kosmos-3M

Launch pad: 132/2

Location: Plesetsk Cosmodrome, Russian Federation

...

Latest news about this satellite

There are no fresh news available about this satellite. Check back as we update our databases every day.


Newsletter sign-up

Weekly statistics, charts and insights to help you stay on top of the space industry.